EHI
0 0 0 0 0 0 0 0 0 0 0 0 0 0 0 0 0 0 0 0 0 0 0 0 0 0 0 0 0 0 0 0 0 0 0 0 0 0
0 0 0 0 0 0 0 0 0 0 0 0 0 0 0 0 0 0 0 0 0 0 0 0 0 0 0 0 0 0 0 0 0 0 0 0 0 0
0 0 0 0 0 0 0 0 0 0 0 0 0 0 0 0 0 0 0 0 0 0 0 0 0 0 0 0 0 0 0 0 0 0 0 0 0 0
0 0 0 0 0 0 0 0 0 0 0 0 0 0 0 0 0 0 0 0 0 0 0 0 0 0 0 0 0 0 0 0 0 0 0 0 0 0
0 0 0 0 0 0 0 0 0 0 0 0 0 0 0 0 0 0 0 0 0 0 0 0 0 0 0 0 0 0 0 0 0 0 0 0 0 0
0 0 0 0 0 0 0 0 0 0 0 0 0 0 0 0 0 0 0 0 0 0 0 0 0 0 0 0 0 0 0 0 0 0 0 0 0 0
0 0 0 0 0 0 0 0 0 0 0 0 0 0 0 0 0 0 0 0 0 0 0 0 0 0 0 0 0 0 0 0 0 0 0 0 0 0
0 0 0 0 0 0 0 0 0 0 0 0 0 0 0 0 0 0 0 0 0 0 0 0 0 0 0 0 0 0 0 0 0 0 0 0 0 0
0 0 0 0 0 0 0 0 0 0 0 0 0 0 0 0 0 0 0 0 0 0 0 0 0 0 0 0 0 0 0 0 0 0 0 0 0 0
0 0 0 0 0 0 0 0 0 0 0 0 0 0 0 0 0 0 0 0 0 0 0 0 0 0 0 0 0 0 0 0 0 0 0 0 0 0
0 0 0 0 0 0 0 0 0 0 0 0 0 0 0 0 0 0 0 0 0 0 0 0 0 0 0 0 0 0 0 0 0 0 0 0 0 0
0 0 0 0 0 0 0 0 0 0 0 0 0 0 0 0 0 0 0 0 0 0 0 0 0 0 0 0 0 0 0 0 0 0 0 0 0 0
0 0 0 0 0 0 0 0 0 0 0 0 0 0 0 0 0 0 0 0 0 0 0 0 0 0 0 0 0 0 0 0 0 0 0 0 0 0
0 0 0 0 0 0 0 0 0 0 0 0 0 0 0 0 0 0 0 0 0 0 0 0 0 0 0 0 0 0 0 0 0 0 0 0 0 0
0 0 0 0 0 0 0 0 0 0 0 0 0 0 0 0 0 0 0 0 0 0 0 0 0 0 0 0 0 0 0 0 0 0 0 0 0 0
0 0 0 0 0 0 0 0 0 0 0 0 0 0 0 0 0 0 0 0 0 0 0 0 0 0 0 0 0 0 0 0 0 0 0 0 0 0
0 0 0 0 0 0 0 0 0 0 0 0 0 0 0 0 0 0 0 0 0 0 0 0 0 0 0 0 0 0 0 0 0 0 0 0 0 0
0 0 0 0 0 0 0 0 0 0 0 0 0 0 0 0 0 0 0 0 0 0 0 0 0 0 0 0 0 0 0 0 0 0 0 0 0 0
0 0 0 0 0 0 0 0 0 0 0 0 0 0 0 0 0 0 0 0 0 0 0 0 0 0 0 0 0 0 0 0 0 0 0 0 0 0
0 0 0 0 0 0 0 0 0 0 0 0 0 0 0 0 0 0 0 0 0 0 0 0 0 0 0 0 0 0 0 0 0 0 0 0 0 0
0 0 0 0 0 0 0 0 0 0 0 0 0 0 0 0 0 0 0 0 0 0 0 0 0 0 0 0 0 0 0 0 0 0 0 0 0 0
0 0 0 0 0 0 0 0 0 0 0 0 0 0 0 0 0 0 0 0 0 0 0 0 0 0 0 0 0 0 0 0 0 0 0 0 0 0
0 0 0 0 0 0 0 0 0 0 0 0 0 0 0 0 0 0 0 0 0 0 0 0 0 0 0 0 0 0 0 0 0 0 0 0 0 0
Wind_Speed
3 3 3 3 3 3 3 4 4 3 3 4 3 2 2 3 7 7 7 12 14 13 12 11 10 9 9 8 8 7 6 6 6 6 8 8 9 9
2 3 3 2 3 3 3 3 3 4 3 3 3 2 2 3 7 6 7 12 15 13 13 12 12 11 11 10 9 8 8 8 8 9 9 9 9 9
2 3 4 3 3 3 2 3 3 3 4 3 2 2 2 2 2 3 4 5 5 12 13 13 13 13 12 12 11 10 10 10 10 11 11 10 10 10
3 3 3 3 4 3 3 3 3 3 4 4 2 2 2 2 2 3 3 5 4 9 13 14 14 13 13 12 12 11 11 11 11 12 12 12 11 11
4 4 4 3 3 2 3 3 2 2 3 3 3 2 1 1 1 1 2 1 3 5 9 12 13 13 12 12 12 11 11 12 12 12 13 13 13 12
3 3 3 4 4 4 3 3 2 1 1 2 2 1 1 1 1 1 1 1 1 1 2 3 7 10 11 11 11 12 12 13 13 13 13 13 13 14
0 1 2 4 6 4 3 3 2 1 1 1 1 0 0 0 1 1 2 1 0 0 1 1 1 1 3 6 9 11 12 13 13 14 13 13 13 14
1 1 1 3 4 4 5 5 4 3 2 1 0 0 1 1 1 1 1 1 0 1 1 1 1 1 1 1 3 7 9 11 11 12 12 12 12 13
1 1 1 2 2 1 2 2 1 2 3 3 2 1 1 1 2 2 1 1 1 1 1 1 2 1 2 3 5 5 6 5 4 4 6 7 9 10
3 1 2 2 2 2 2 2 1 1 0 1 2 1 0 1 2 2 2 3 2 2 2 1 2 1 2 2 5 7 7 6 6 5 4 4 5 7
5 4 3 3 2 4 4 4 3 2 3 4 4 3 4 4 4 3 3 3 2 2 2 2 1 2 2 2 3 5 5 6 5 5 5 5 5 5
4 4 5 4 3 3 4 5 4 2 2 3 3 4 4 4 5 3 3 2 2 1 1 1 1 2 2 2 2 3 3 5 6 6 6 5 5 3
2 2 2 4 4 3 3 3 3 3 2 3 3 3 3 3 3 2 2 2 2 1 0 2 1 2 2 2 3 3 3 3 3 4 6 7 6 3
2 2 2 3 3 3 3 3 4 4 3 3 3 2 2 2 2 3 3 3 3 3 2 2 2 1 2 2 3 4 3 3 3 3 4 7 7 8
2 3 3 4 3 3 3 4 4 3 3 3 3 2 1 1 2 3 4 5 5 5 4 3 2 1 2 1 2 3 3 3 4 4 4 5 6 5
5 6 7 8 5 4 4 4 3 3 3 3 3 2 2 3 3 3 3 3 4 4 5 6 4 3 3 3 3 3 3 4 4 4 4 5 6 6
4 5 5 5 5 5 4 4 4 3 4 3 3 4 4 4 4 3 3 4 4 3 4 5 5 6 7 4 4 4 3 3 4 4 3 5 6 5
7 7 7 6 6 5 5 5 5 5 4 4 5 4 4 5 4 4 4 4 4 3 3 3 3 3 4 5 6 3 3 3 4 4 3 3 4 4
8 7 7 6 6 6 6 5 5 4 4 5 5 5 4 4 4 4 4 4 4 3 3 3 3 3 3 2 4 7 4 3 3 4 4 3 2 2
6 6 6 6 6 6 6 5 5 5 5 5 5 4 4 4 4 4 4 4 3 3 3 3 3 2 1 1 2 4 7 4 3 3 3 3 2 3
5 5 5 5 5 5 5 5 5 5 5 4 4 4 4 4 4 3 3 5 3 2 2 3 3 3 1 3 3 3 4 7 6 2 2 2 3 4
3 4 4 4 4 4 4 4 4 4 4 4 4 3 3 4 4 4 3 3 2 2 2 2 4 4 4 4 3 2 3 5 7 8 8 4 1 2
2 3 3 3 3 3 3 4 4 4 3 3 3 3 3 3 3 3 3 3 2 3 3 3 3 4 4 3 3 3 3 4 4 5 5 9 8 6
Wind_Direction
215 206 200 203 187 177 164 157 161 200 262 270 276 275 221 202 204 197 199 207 207 209 208 209 212 215 220 225 229 233 238 240 240 248 260 272 282 290
211 192 196 201 187 176 169 169 166 173 221 258 261 281 262 223 204 195 205 210 211 211 212 214 215 217 221 224 226 226 226 227 234 243 252 260 270 280
220 202 208 196 188 183 175 176 182 175 214 259 259 269 247 231 196 194 204 210 217 219 220 222 223 223 225 227 227 226 225 228 236 243 249 255 263 271
241 224 223 201 195 193 188 197 199 197 203 245 270 264 245 224 196 193 202 209 211 226 227 228 229 228 228 229 230 229 228 230 234 240 247 253 259 265
235 216 216 191 199 197 199 204 208 206 199 219 256 257 258 224 162 194 199 202 211 227 231 233 233 232 231 232 235 236 236 236 236 237 242 249 254 260
230 206 190 185 191 187 184 189 181 175 189 217 250 264 261 252 152 187 217 214 237 275 266 242 235 236 239 240 241 242 242 242 241 240 240 243 249 255
329 212 191 184 176 171 163 163 147 140 147 180 245 298 292 186 211 190 196 178 312 311 306 332 280 249 248 251 252 253 251 248 245 244 242 242 245 252
42 38 107 141 162 166 163 162 158 150 149 136 119 183 265 230 179 148 138 119 264 332 103 24 42 11 334 309 313 288 274 265 256 248 246 246 248 253
55 114 113 117 125 125 148 130 123 132 146 147 140 201 236 217 151 122 119 122 140 342 63 51 25 29 13 21 16 21 20 10 336 291 269 263 262 261
33 63 111 105 116 148 141 119 80 41 89 121 138 147 143 122 132 127 120 97 66 22 48 80 14 8 358 1 16 33 38 35 32 24 2 333 311 296
31 43 73 86 87 128 133 125 98 61 66 99 110 99 91 95 106 92 83 83 65 17 18 82 22 355 346 346 358 16 21 23 23 20 14 5 352 337
25 30 48 62 62 106 132 134 130 123 100 89 70 56 57 65 75 92 116 109 109 68 3 74 36 23 14 342 349 357 2 7 15 20 18 14 8 1
21 10 0 27 48 67 104 121 138 135 121 121 98 72 56 49 48 59 85 112 116 102 121 97 67 40 42 345 344 355 6 358 359 4 8 9 12 15
357 332 322 359 38 66 88 102 102 103 104 103 95 80 69 55 48 55 61 66 74 97 114 99 91 68 52 25 347 340 0 9 8 1 360 5 15 25
4 8 37 46 52 50 57 82 94 103 111 111 108 94 76 67 65 61 52 59 56 52 52 49 77 82 82 70 3 346 349 358 5 9 17 29 27 23
20 32 54 63 63 55 53 58 77 108 120 118 110 89 64 57 51 55 62 56 57 28 22 33 41 65 75 60 60 31 15 8 353 1 32 45 43 41
26 41 44 44 49 49 52 55 58 70 78 80 88 85 73 65 50 46 62 64 68 45 15 14 35 58 64 67 62 33 20 14 357 356 35 57 46 35
51 50 48 46 48 50 57 56 52 56 61 74 78 80 80 78 70 57 62 73 73 53 31 8 17 35 46 49 40 38 24 9 355 5 30 59 52 23
53 48 45 45 46 47 51 58 55 46 58 70 77 79 82 80 77 70 69 73 70 56 31 16 26 58 69 47 19 31 36 8 8 17 23 41 46 357
42 43 40 38 41 46 47 51 53 52 55 61 66 69 75 82 79 75 74 83 77 60 35 21 23 33 79 87 58 12 20 31 28 20 5 11 6 338
38 39 35 34 37 42 45 48 53 54 52 56 58 64 71 81 83 81 80 80 78 68 50 3 326 344 83 68 64 17 360 21 46 46 11 16 3 357
46 42 36 38 39 40 42 47 51 49 47 53 57 63 71 83 92 91 91 88 76 76 60 8 7 38 58 79 80 43 8 2 16 35 40 54 73 8
67 54 46 40 41 43 48 54 58 50 45 51 59 66 78 83 86 90 93 90 87 80 70 52 40 50 59 74 83 63 40 15 4 13 3 6 23 25